Starlink 34074

operational
NORAD ID: 64099 Int'l Des: 2025-110 Owner: SPXS Country: US Constellation: starlink
LEOCIRCULAR

Über Starlink 34074

Beschreibung wird geladen...

Live-Position

3D-Globus wird geladen...

Nächste Überflüge

Höhenverlauf

Altitude vs Time

uPlot chart will show altitude changes over time

Zweizeiliger Elementsatz

1 64099U 25110D 25354.82256167 .00021555 00000-0 73790-3 0 9990
2 64099 53.1599 33.3750 0001627 93.9941 266.1246 15.30193669 33808
Epoch: 20. Dez. 2025 • Age: 8 hours

Aktueller Status

Höhe 478.3 km
Geschwindigkeit 7.63 km/s
Subsatellitenpunkt -10.11°S, 118.6°W
Startdatum 23. Mai 2025
Alter 0.5 years
Typ internet

Technische Details

Klassifizierung Payload
Masse 575.00 kg
Trockenmasse 530.00 kg
Gesamtmasse 575.00 kg
Länge 0.30 m
Durchmesser 4.10 m
Spannweite 29.00 m
Form Box + pan
Hersteller SPXS
Bus-Typ Starlink V2MO
Phasenstatus In Orbit
Besitzer/Staat SPXS/US

Große Konstellationen

Loading constellations...